Shelbyville, IN

7:06 AM EST on February 22, 2017 (GMT -0500)
Shelbyville Municipal

Weather History for KGEZ - November, 2014

Change the Weather History Date:

Sunday, November 30, 2014

  Actual Average Record
Temperature  
Mean Temperature 56 °F 37 °F  
Max Temperature 65 °F 45 °F 65 °F (2014)
Min Temperature 46 °F 29 °F 21 °F (1999)
Degree Days  
Heating Degree Days 9 28  
Month to date heating degree days 813 639  
Since 1 July heating degree days 1184 1075  
Cooling Degree Days 0 0  
Month to date cooling degree days 0 0  
Year to date cooling degree days 1080 913  
Growing Degree Days 6 (Base 50)    
Moisture  
Dew Point 52 °F    
Average Humidity 77    
Maximum Humidity 86    
Minimum Humidity 67    
Precipitation  
Precipitation 0.08 in 0.12 in 1.93 in (2006)
Month to date precipitation 3.56 3.73  
Year to date precipitation 36.96 40.29  
Sea Level Pressure  
Sea Level Pressure 29.92 in    
Wind  
Wind Speed 15 mph (SW)    
Max Wind Speed 25 mph    
Max Gust Speed 31 mph    
Visibility 9 miles    
Events Rain    
T = Trace of Precipitation, MM = Missing Value Source: NWS Daily Summary

Daily Weather History Graph

Daily Weather History Graph

Search for Another Location

Airport or City:

Trip Planner

Search our weather history database for the weather conditions in past years. The results will help you decide how hot, cold, wet, or windy it might be!

Date:

Astronomy

Nov. 30, 2014 Rise Set
Actual Time 7:43 AM EST 5:19 PM EST
Civil Twilight 7:13 AM EST 5:49 PM EST
Nautical Twilight 6:40 AM EST 6:23 PM EST
Astronomical Twilight 6:08 AM EST 6:55 PM EST
Moon 1:48 PM EST (11/30) 1:14 AM EST (11/30)
Length of Visible Light 10h 35m
Length of Day
9h 36m
Waxing Gibbous, 64% of the Moon is Illuminated
Nov 30
Waxing Gibbous
Dec 6
Full
Dec 14
Last Quarter
Dec 21
New
Dec 28
First Quarter

Hourly Weather History & Observations

Time (EST) Temp. Windchill Dew Point Humidity Pressure Visibility Wind Dir Wind Speed Gust Speed Precip Events Conditions
12:53 AM 55.0 °F - 48.0 °F 77% 29.82 in 10.0 mi South 15.0 mph - N/A   Overcast
1:53 AM 55.9 °F - 48.9 °F 77% 29.81 in 10.0 mi South 17.3 mph 25.3 mph N/A   Overcast
2:53 AM 55.9 °F - 48.9 °F 77% 29.83 in 10.0 mi South 16.1 mph - N/A   Overcast
3:53 AM 57.0 °F - 50.0 °F 77% 29.83 in 10.0 mi SSW 11.5 mph - N/A   Overcast
4:53 AM 60.1 °F - 52.0 °F 75% 29.83 in 10.0 mi SSW 17.3 mph - N/A   Overcast
5:53 AM 61.0 °F - 53.1 °F 75% 29.83 in 10.0 mi SSW 16.1 mph 25.3 mph N/A   Overcast
6:53 AM 60.1 °F - 52.0 °F 75% 29.84 in 10.0 mi SSW 13.8 mph - N/A   Overcast
7:53 AM 61.0 °F - 52.0 °F 72% 29.85 in 10.0 mi SSW 19.6 mph - N/A   Overcast
8:53 AM 60.1 °F - 52.0 °F 75% 29.87 in 10.0 mi SSW 16.1 mph - N/A   Overcast
9:53 AM 62.1 °F - 53.1 °F 72% 29.88 in 10.0 mi SSW 18.4 mph 28.8 mph N/A   Overcast
10:53 AM 63.0 °F - 53.1 °F 70% 29.89 in 10.0 mi SW 18.4 mph 29.9 mph N/A   Overcast
11:53 AM 63.0 °F - 53.1 °F 70% 29.88 in 10.0 mi SW 20.7 mph 29.9 mph N/A   Overcast
12:53 PM 64.0 °F - 53.1 °F 67% 29.87 in 10.0 mi SSW 19.6 mph - N/A   Overcast
1:12 PM 64.0 °F - 53.1 °F 67% 29.87 in 10.0 mi SW 18.4 mph - N/A   Overcast
1:53 PM 64.0 °F - 54.0 °F 70% 29.87 in 10.0 mi SW 16.1 mph - N/A   Overcast
2:53 PM 64.9 °F - 54.0 °F 68% 29.88 in 10.0 mi SW 17.3 mph - N/A   Overcast
3:53 PM 64.9 °F - 54.0 °F 68% 29.90 in 10.0 mi SW 13.8 mph - N/A   Overcast
4:53 PM 64.0 °F - 54.0 °F 70% 29.92 in 10.0 mi SW 11.5 mph - N/A   Overcast
5:53 PM 63.0 °F - 53.1 °F 70% 29.95 in 10.0 mi SW 11.5 mph - N/A   Overcast
6:53 PM 64.0 °F - 53.1 °F 67% 29.95 in 10.0 mi SSW 12.7 mph - N/A   Overcast
7:53 PM 61.0 °F - 54.0 °F 78% 29.98 in 10.0 mi SW 12.7 mph - N/A   Overcast
8:40 PM 60.1 °F - 55.9 °F 86% 30.02 in 5.0 mi NW 18.4 mph 26.5 mph 0.04 in Rain Light Rain
8:46 PM 57.0 °F - 53.1 °F 87% 30.03 in 8.0 mi NW 19.6 mph 27.6 mph 0.04 in Rain Light Rain
8:53 PM 57.0 °F - 53.1 °F 87% 30.04 in 4.0 mi NW 19.6 mph - 0.07 in Rain Rain
9:04 PM 53.1 °F - 50.0 °F 89% 30.05 in 4.0 mi NW 16.1 mph - 0.01 in Rain Light Rain
9:53 PM 51.1 °F - 48.0 °F 89% 30.08 in 6.0 mi NW 9.2 mph - 0.01 in   Overcast
10:53 PM 48.0 °F - 44.1 °F 86% 30.11 in 8.0 mi NNW 11.5 mph - N/A   Overcast
11:53 PM 46.0 °F 40.6 °F 42.1 °F 86% 30.15 in 7.0 mi NW 11.5 mph - N/A   Overcast